Flag for Germany Weather past 2 weeks in Straubing, Bavaria, Germany

Now
76 °F

Sunny.


Feels Like: 78 °F
Forecast: 51 / 79 °F
Wind: 2 mph from Southwest

Location: Straubing

Current Time: Jul 24, 2014 at 1:37:28 PM

Latest Report: Jul 24, 2014 at 1:00 PM


Visibility: 25 mi

Pressure: 29.86 "Hg

Humidity: 42%

Dew point: 51 °F

Location of StraubingLocation

Historic Weather in Straubing — Graph

°F

Straubing temperature yesterday

Maximum temperature yesterday: 78 °F (at 4:00 PM)
Minimum temperature yesterday: 57 °F (at 4:00 AM)
Average temperature yesterday: 68 °F

Past Weeks' High & Low Weather Summary

 TemperatureHumidityPressure
High90 °F (Jul 20, 3:00 PM)98% (Jul 12, 3:00 AM)30.17 "Hg (Jul 12, 3:00 AM)
Low53 °F (Jul 10, 6:00 AM)24% (Jul 20, 4:00 PM)29.74 "Hg (Jul 20, 5:00 PM)
Average67 °F73%29.94 "Hg
* Reported Jul 9 3:00 PM — Jul 24 12:00 Noon, Straubing, Weather by CustomWeather, © 2014

Note: Actual official high and low records may vary slightly from our data, if they occured in-between our weather recording intervals... More about our weather records

Advertising

Straubing weather history for previous 24 hours

 ConditionsComfort  
Time TempWeatherWind HumidityBarometerVisibility
12:00 PM
Jul 24
74 °FSunny.1 mph50%29.87 "Hg31 mi
10:00 AM69 °FSunny.1 mph65%29.89 "Hg17 mi
9:00 AM66 °FSunny.2 mph69%29.90 "Hg19 mi
8:00 AM63 °FSunny.2 mph75%29.90 "Hg12 mi
7:00 AM57 °FSunny.2 mph93%29.91 "Hg5 mi
6:00 AM53 °FSunny.2 mph94%29.92 "Hg7 mi
5:00 AM58 °FClear.1 mph91%29.91 "Hg9 mi
4:00 AM57 °FClear.1 mph88%29.91 "Hg12 mi
3:00 AM58 °FClear.2 mph88%29.92 "Hg14 mi
2:00 AM55 °FClear.2 mph94%29.94 "Hg6 mi
1:00 AM59 °FClear.No wind86%29.95 "Hg14 mi
12:00 AM58 °FPassing clouds.2 mph93%29.96 "Hg5 mi
10:00 PM
Jul 23
64 °FClear.1 mph87%29.94 "HgN/A
9:00 PM71 °FClear.1 mph66%29.91 "Hg25 mi
8:00 PM74 °FScattered clouds.2 mph64%29.90 "Hg34 mi
7:00 PM74 °FSunny.2 mph54%29.90 "Hg31 mi
6:00 PM74 °FSunny.5 mph62%29.90 "Hg16 mi
5:00 PM73 °FOvercast.5 mph63%29.91 "Hg22 mi
4:00 PM78 °FPartly sunny.5 mph51%29.90 "Hg25 mi
3:00 PM77 °FSunny.2 mph46%29.93 "Hg25 mi
Weather by CustomWeather, © 2014

See weather overviewHow to use our weather pages